| time (UTC) | temp C | wind direction | speed KPH | gust KPH | rain 1hr cm | rain 24hr cm | rain mn cm | humidity % | barometer mb |
| 20260502151538 | 19 | 247 | 11.3 | 19.3 | 0.00 | 0.00 | 0.00 | 59 | 1013.1 |
| 20260502123040 | 18 | 252 | 8.0 | 17.7 | 0.00 | 0.00 | 0.00 | 64 | 1014.3 |
| 20260502121537 | 18 | 308 | 8.0 | 17.7 | 0.00 | 0.00 | 0.00 | 65 | 1014.3 |
| 20260502114530 | 18 | 227 | 9.7 | 17.7 | 0.00 | 0.00 | 0.00 | 67 | 1014.4 |
| 20260502113028 | 17 | 319 | 9.7 | 17.7 | 0.00 | 0.00 | 0.00 | 69 | 1014.4 |
| 20260502111524 | 17 | 229 | 8.0 | 19.3 | 0.00 | 0.00 | 0.00 | 71 | 1014.7 |
| 20260502110021 | 17 | 287 | 12.9 | 22.5 | 0.00 | 0.00 | 0.00 | 71 | 1014.8 |
| 20260502104523 | 17 | 254 | 8.0 | 14.5 | 0.00 | 0.00 | 0.00 | 73 | 1014.7 |
| 20260502103016 | 16 | 284 | 9.7 | 24.1 | 0.00 | 0.00 | 0.00 | 71 | 1014.8 |
| 20260502101532 | 16 | 318 | 9.7 | 17.7 | 0.00 | 0.00 | 0.00 | 74 | 1014.8 |
| 20260502091505 | 14 | 244 | 8.0 | 20.9 | 0.00 | 0.00 | 0.00 | 78 | 1015.4 |
| 20260502080108 | 13 | 231 | 8.0 | 19.3 | 0.00 | 0.00 | 0.00 | 79 | 1015.1 |
| 20260502070058 | 11 | 250 | 8.0 | 20.9 | 0.00 | 0.00 | 0.00 | 85 | 1015.3 |
| 20260502064551 | 11 | 239 | 8.0 | 24.1 | 0.00 | 0.00 | 0.00 | 85 | 1015.3 |
| 20260502063053 | 11 | 242 | 9.7 | 19.3 | 0.00 | 0.00 | 0.00 | 86 | 1015.3 |
| 20260502061544 | 11 | 253 | 6.4 | 19.3 | 0.00 | 0.00 | 0.00 | 85 | 1015.3 |
| 20260502060042 | 11 | 235 | 8.0 | 14.5 | 0.00 | 0.00 | 0.00 | 85 | 1015.4 |
| 20260502054542 | 11 | 227 | 8.0 | 12.9 | 0.00 | 0.00 | 0.00 | 86 | 1015.4 |
| 20260502053037 | 10 | 214 | 4.8 | 12.9 | 0.00 | 0.00 | 0.00 | 85 | 1015.4 |
| 20260502051541 | 11 | 206 | 3.2 | 19.3 | 0.00 | 0.00 | 0.00 | 85 | 1015.4 |
| 20260502050034 | 11 | 248 | 4.8 | 16.1 | 0.00 | 0.00 | 0.00 | 85 | 1015.3 |
| 20260502044531 | 11 | 262 | 4.8 | 11.3 | 0.00 | 0.00 | 0.00 | 85 | 1015.2 |
| 20260502043031 | 11 | 213 | 4.8 | 14.5 | 0.00 | 0.00 | 0.00 | 84 | 1015.2 |
| 20260502041528 | 11 | 263 | 6.4 | 16.1 | 0.00 | 0.00 | 0.00 | 85 | 1015.3 |
| 20260502040029 | 11 | 239 | 4.8 | 11.3 | 0.00 | 0.00 | 0.00 | 83 | 1015.3 |
| 20260502034528 | 11 | 256 | 8.0 | 19.3 | 0.00 | 0.00 | 0.00 | 83 | 1015.4 |
| 20260502033022 | 11 | 241 | 4.8 | 14.5 | 0.00 | 0.00 | 0.00 | 83 | 1015.4 |
| 20260502031521 | 12 | 231 | 4.8 | 14.5 | 0.00 | 0.00 | 0.00 | 82 | 1015.4 |
| 20260502030019 | 12 | 237 | 6.4 | 14.5 | 0.00 | 0.00 | 0.00 | 83 | 1015.5 |
| 20260502024517 | 12 | 254 | 3.2 | 16.1 | 0.00 | 0.00 | 0.00 | 84 | 1015.5 |
| 20260502023016 | 12 | 252 | 4.8 | 14.5 | 0.00 | 0.00 | 0.00 | 85 | 1015.6 |
| 20260502021514 | 12 | 248 | 4.8 | 12.9 | 0.00 | 0.00 | 0.00 | 86 | 1015.6 |
| 20260502020013 | 12 | 252 | 4.8 | 11.3 | 0.00 | 0.00 | 0.00 | 87 | 1015.7 |
| 20260502014512 | 12 | 244 | 3.2 | 9.7 | 0.00 | 0.00 | 0.00 | 88 | 1015.7 |
| 20260502013009 | 11 | 195 | 0.0 | 4.8 | 0.00 | 0.00 | 0.00 | 89 | 1015.8 |
| 20260502011519 | 11 | 181 | 1.6 | 3.2 | 0.00 | 0.00 | 0.00 | 89 | 1016.0 |
| 20260502010012 | 11 | 181 | 0.0 | 1.6 | 0.00 | 0.00 | 0.00 | 88 | 1016.1 |
| 20260502004505 | 11 | 181 | 0.0 | 3.2 | 0.00 | 0.00 | 0.00 | 88 | 1016.1 |
| 20260502003004 | 11 | 181 | 0.0 | 1.6 | 0.00 | 0.00 | 0.00 | 87 | 1016.2 |
| 20260502001502 | 11 | 181 | 0.0 | 3.2 | 0.00 | 0.00 | 0.00 | 87 | 1016.2 |
| 20260502000002 | 12 | 181 | 0.0 | 1.6 | 0.00 | 0.00 | 0.00 | 86 | 1016.1 |
| 20260501234609 | 12 | 181 | 0.0 | 4.8 | 0.00 | 0.00 | 0.00 | 87 | 1016.2 |
| 20260501233104 | 11 | 181 | 0.0 | 0.0 | 0.00 | 0.00 | 0.00 | 86 | 1016.3 |
| 20260501231559 | 11 | 181 | 0.0 | 4.8 | 0.00 | 0.00 | 0.00 | 85 | 1016.4 |
| 20260501230059 | 11 | 181 | 0.0 | 6.4 | 0.00 | 0.00 | 0.00 | 84 | 1016.4 |
| 20260501224558 | 12 | 209 | 0.0 | 3.2 | 0.00 | 0.00 | 0.00 | 83 | 1016.5 |
| 20260501223058 | 12 | 208 | 0.0 | 6.4 | 0.00 | 0.00 | 0.00 | 82 | 1016.4 |
| 20260501221556 | 12 | 205 | 4.8 | 8.0 | 0.00 | 0.00 | 0.00 | 82 | 1016.3 |
| 20260501220136 | 12 | 194 | 4.8 | 9.7 | 0.00 | 0.00 | 0.00 | 81 | 1016.3 |
| 20260501214556 | 12 | 222 | 4.8 | 9.7 | 0.00 | 0.00 | 0.00 | 80 | 1016.3 |
| 20260501213102 | 13 | 167 | 3.2 | 8.0 | 0.00 | 0.00 | 0.00 | 77 | 1016.2 |
| 20260501211555 | 14 | 164 | 3.2 | 8.0 | 0.00 | 0.00 | 0.00 | 74 | 1016.2 |
| 20260501210115 | 14 | 163 | 6.4 | 11.3 | 0.00 | 0.00 | 0.00 | 73 | 1016.3 |
| 20260501204557 | 14 | 228 | 0.0 | 14.5 | 0.00 | 0.00 | 0.00 | 72 | 1016.5 |
| 20260501203056 | 15 | 226 | 6.4 | 16.1 | 0.00 | 0.00 | 0.00 | 70 | 1016.5 |
| 20260501201557 | 15 | 163 | 11.3 | 20.9 | 0.00 | 0.00 | 0.00 | 68 | 1016.0 |
| 20260501200053 | 15 | 121 | 11.3 | 19.3 | 0.00 | 0.00 | 0.00 | 68 | 1016.1 |
| 20260501194552 | 15 | 146 | 11.3 | 22.5 | 0.00 | 0.00 | 0.00 | 68 | 1016.1 |
| 20260501193051 | 15 | 121 | 12.9 | 20.9 | 0.00 | 0.00 | 0.00 | 69 | 1016.2 |
| 20260501191558 | 15 | 143 | 14.5 | 22.5 | 0.00 | 0.00 | 0.00 | 69 | 1016.1 |
| 20260501190101 | 15 | 139 | 12.9 | 20.9 | 0.00 | 0.00 | 0.00 | 69 | 1016.2 |
| 20260501184549 | 15 | 148 | 12.9 | 25.7 | 0.00 | 0.00 | 0.00 | 69 | 1016.2 |
| 20260501183059 | 15 | 122 | 14.5 | 27.4 | 0.00 | 0.00 | 0.00 | 69 | 1016.2 |
| 20260501181602 | 16 | 136 | 12.9 | 25.7 | 0.00 | 0.00 | 0.00 | 68 | 1016.3 |
| 20260501180046 | 16 | 141 | 16.1 | 29.0 | 0.00 | 0.00 | 0.00 | 68 | 1016.3 |
| 20260501174545 | 16 | 143 | 16.1 | 27.4 | 0.00 | 0.00 | 0.00 | 66 | 1016.4 |
| 20260501173048 | 17 | 151 | 16.1 | 25.7 | 0.00 | 0.00 | 0.00 | 64 | 1016.4 |
| 20260501171542 | 17 | 162 | 16.1 | 25.7 | 0.00 | 0.00 | 0.00 | 63 | 1016.5 |
| 20260501170049 | 17 | 132 | 14.5 | 29.0 | 0.00 | 0.00 | 0.00 | 61 | 1016.6 |
| 20260501164544 | 18 | 121 | 12.9 | 22.5 | 0.00 | 0.00 | 0.00 | 62 | 1016.7 |
| 20260501163045 | 18 | 128 | 11.3 | 25.7 | 0.00 | 0.00 | 0.00 | 61 | 1016.7 |
| 20260501161534 | 18 | 104 | 14.5 | 25.7 | 0.00 | 0.00 | 0.00 | 59 | 1016.9 |